Location: Unspecified
(0.0000°N, 0.0000°E)
Time: 13:24:37
(UTC+00:00)

Kosmos-84 - Visible Passes

Search period start: 11 March 2026 00:00
Search period end: 21 March 2026 00:00
Orbit: 1467 x 1571 km, 56.1° (Epoch: 11 March)

Date Brightness Start Highest point End Pass type
(mag) Time Alt. Az. Time Alt. Az. Time Alt. Az.
13 Mar ? 20:49:34 10° NNW 20:51:12 16° N 20:51:12 16° N visible
14 Mar ? 20:05:50 10° N 20:09:06 21° NNE 20:09:06 21° NNE visible
15 Mar ? 19:23:01 10° NNE 19:27:06 16° NE 19:27:06 16° NE visible
15 Mar ? 21:20:53 10° NW 21:23:36 23° NW 21:23:36 23° NW visible
16 Mar ? 20:36:08 10° NNW 20:41:45 43° NNW 20:41:45 43° NNW visible
17 Mar ? 19:51:51 10° N 20:00:02 46° NE 20:00:02 46° NE visible
17 Mar ? 21:54:14 10° WNW 21:56:34 18° WNW 21:56:34 18° WNW visible
18 Mar ? 19:08:08 10° N 19:15:30 29° ENE 19:18:28 24° E visible
18 Mar ? 21:08:23 10° NW 21:15:00 42° W 21:15:00 42° W visible
19 Mar ? 18:25:21 10° NNE 18:30:36 17° ENE 18:35:53 10° E visible
19 Mar ? 20:23:09 10° NW 20:32:06 75° WSW 20:33:37 63° S visible
20 Mar ? 19:38:25 10° NNW 19:47:20 72° ENE 19:52:23 30° SE visible
20 Mar ? 21:43:22 10° W 21:48:58 18° WSW 21:48:58 18° WSW visible
